User: anonymous   Login
Location: Chakepay
(13.3931°S, 72.1925°W)
Time: 23:10:19
(UTC+00:00)
Language:

Cosmos 2151 - Orbit

View from above orbital plane
View from above orbital plane
View from above satellite
View from above satellite

Ground track
Ground track

The orbit data is extracted from the following two-line orbital elements,

1 21422U 91042A   20027.22320698 +.00000123 +00000-0 +95608-5 0  9999
2 21422 082.4986 058.3628 0013904 354.8789 005.2286 14.92102684529672
Epoch (UTC): 27 January 2020 05:21:25
Eccentricity: 0.0013904
inclination: 82.4986°
perigee height: 581 km
apogee height: 601 km
right ascension of ascending node: 58.3628°
argument of perigee: 354.8789°
revolutions per day: 14.92102684
mean anomaly at epoch: 5.2286°
orbit number at epoch: 52967

The dashed part of the orbit path shows where the satellite is in the earth's shadow,  

DLR